PRAETORIAN SDA_614

Last updated on Wed Aug 19 2026 00:03:42 GMT+0000 (Coordinated Universal Time)

1 65577U 25203N 26230.17304916 .00000107 00000+0 84180-4 0 9998 2 65577 81.3035 313.1278 0007514 31.9324 328.2287 13.84782876 47294
UTC large
Height (km)
Speed (km/s)
/
Latitude / Longitude
Inclination (degrees)
Orbital Period (minutes)
Azimuth
Elevation
Range (km)
Doppler Factor

Next 0 passes for location: London (51.5072 / 0.1276)

No passes found over London.
PRAETORIAN SDA_614